[[{"header":{"parameterUnit":"m.s-1","parameterCategory":1,"la1":30.2991,"la2":30.254,"lo1":-89.0895,"lo2":-89.0444,"dy":0.0017,"dx":0.0017,"nx":28,"ny":28,"refTime":"2026-01-29T03:00:00:Z","depth":0,"parameterNumber":2,"parameterNumberName":"U-component_of_WINDS"},"data":[0,0,0,0,0,0,0,0,0,0,0,0,0,0,0,0,0,0,0,0,0,0,0,0,0,0,0,0,0,0,0,0,0,0,0,0,0,0,0,0,0,0,0,0,0,0,0,0,0,0,0,0,0,0,0,0,0,0,-2.3766,-2.3767,0,-2.3795,-2.3795,-2.3795,-2.3735,-2.3733,-2.3731,-2.3729,-2.3758,-2.376,-2.3763,0,0,0,0,0,0,0,0,0,0,0,0,0,-2.3659,-2.3661,-2.3766,-2.3767,-2.3767,-2.3795,-2.3795,-2.3796,-2.3735,-2.3733,-2.373,-2.3728,-2.3757,-2.376,-2.3763,0,0,0,0,0,0,0,0,0,0,0,0,0,-2.3698,-2.3662,-2.3766,-2.374,-2.3738,-2.3795,-2.3795,-2.3796,-2.3736,-2.3733,-2.373,-2.3727,-2.3756,-2.376,-2.3763,-2.3846,0,0,-2.3775,-2.3777,0,0,0,0,0,0,0,0,-2.3696,-2.3702,-2.3744,-2.3742,-2.374,-2.3758,-2.3768,-2.3813,-2.3736,-2.3737,-2.3729,-2.3725,-2.376,-2.3764,-2.3775,-2.3848,-2.3849,-2.3776,-2.3778,-2.378,-2.3781,0,0,0,0,0,0,0,-2.3693,-2.3701,-2.3778,-2.3744,-2.3742,-2.3727,-2.3729,-2.3776,-2.3765,-2.3736,-2.3732,-2.3736,-2.3759,-2.3772,-2.3776,-2.3849,-2.3776,-2.3779,-2.3781,-2.3783,-2.3989,-2.3992,0,0,0,0,0,0,-2.3694,-2.3699,-2.3777,-2.3778,-2.371,-2.3731,-2.3734,-2.3755,-2.3764,-2.3762,-2.3739,-2.3733,-2.3767,-2.3771,-2.3776,-2.3872,-2.378,-2.3783,-2.3786,-2.3986,-2.3989,-2.3993,0,0,0,0,0,0,-2.3692,-2.3702,-2.3776,-2.3737,-2.3746,-2.3736,-2.3761,-2.3757,-2.377,-2.3766,-2.3763,-2.3754,-2.3764,-2.3771,-2.3829,-2.3872,-2.3785,-2.3789,-2.3982,-2.3987,-2.3991,-2.4065,0,0,0,0,0,0,-2.3689,-2.3701,-2.3733,-2.3739,-2.3748,-2.3828,-2.3764,-2.376,-2.3777,-2.3771,-2.378,-2.3778,-2.3763,-2.3823,-2.3833,-2.3876,-2.3792,-2.3978,-2.3984,-2.399,-2.4059,-2.4072,-2.4083,0,0,0,0,0,-2.3685,-2.3753,-2.3735,-2.3745,-2.3788,-2.3831,-2.3836,-2.3817,-2.3781,-2.3812,-2.3809,-2.3778,-2.3866,-2.383,-2.384,-2.3885,-2.3975,-2.3982,-2.3989,-2.4053,-2.4069,-2.4083,0,0,0,0,0,0,-2.3753,-2.3753,-2.3733,-2.3805,-2.3818,-2.3821,-2.386,-2.3835,-2.3858,-2.3851,-2.3826,-2.3829,-2.3891,-2.3894,-2.3853,-2.3964,-2.3915,-2.3924,-2.396,-2.3975,-2.3987,-2.3984,-2.3795,0,0,0,0,0,-2.3776,-2.3812,-2.381,-2.3874,-2.3881,-2.387,-2.3888,-2.3872,-2.3884,-2.389,-2.3891,-2.3904,-2.3935,-2.3955,-2.3983,-2.4059,-2.4059,-2.4095,-2.4107,-2.4117,-2.4125,-2.4163,-2.4178,-2.4016,-2.4016,-2.4016,0,0,-2.3825,-2.3829,-2.3853,-2.3887,-2.3896,-2.3932,-2.3875,-2.3916,-2.3943,-2.3896,-2.395,-2.3952,-2.3965,-2.4032,-2.4061,-2.4036,-2.417,-2.4126,-2.4134,-2.4137,-2.4172,-2.4187,-2.4201,-2.4021,-2.402,-2.4019,0,0,-2.3931,-2.3939,-2.3991,-2.4001,-2.4014,-2.4006,-2.4019,-2.4025,-2.4023,-2.4077,-2.4043,-2.4074,-2.4128,-2.4138,-2.415,-2.4259,-2.423,-2.4269,-2.4331,-2.4369,-2.4382,-2.4393,-2.4429,-2.4443,-2.4277,-2.4277,-2.4277,0,-2.3989,-2.4043,-2.4022,-2.4065,-2.408,-2.404,-2.4091,-2.4102,-2.4124,-2.4135,-2.4107,-2.4172,-2.4178,-2.4246,-2.4272,-2.4284,-2.4297,-2.4267,-2.4382,-2.4393,-2.4403,-2.4437,-2.4451,-2.4282,-2.4281,-2.4281,-2.428,0,-2.4113,-2.415,-2.4191,-2.4213,-2.4233,-2.428,-2.4265,-2.4288,-2.427,-2.4265,-2.4319,-2.4325,-2.4353,-2.4368,-2.4352,-2.4433,-2.4417,-2.4386,-2.4335,-2.4423,-2.4455,-2.4468,-2.4288,-2.4287,-2.4285,-2.4284,0,0,-2.4262,-2.427,-2.4285,-2.4293,-2.4305,-2.4333,-2.4379,-2.4405,-2.4424,-2.4441,-2.4477,-2.4523,-2.4494,-2.4508,-2.4492,-2.4525,-2.4608,-2.449,-2.449,-2.4509,-2.4696,-2.4717,-2.4733,-2.459,-2.4593,-2.4595,-2.4694,0,-2.4365,-2.4442,-2.4424,-2.45,-2.4533,-2.4495,-2.4534,-2.4545,-2.4541,-2.4569,-2.4564,-2.4596,-2.4557,-2.4564,-2.4596,-2.4592,-2.4645,-2.4585,-2.4622,-2.4624,-2.4617,-2.475,-2.4773,-2.4866,-2.4706,-2.4708,-2.471,0,-2.4495,-2.4516,-2.4595,-2.4599,-2.4613,-2.4648,-2.467,-2.4697,-2.4708,-2.4703,-2.4718,-2.4696,-2.4739,-2.469,-2.4748,-2.4708,-2.4722,-2.4722,-2.4726,-2.4726,-2.467,-2.4752,-2.4895,-2.4908,-2.473,-2.4728,-2.4727,0,-2.4592,-2.464,-2.4693,-2.4702,-2.4709,-2.4735,-2.4739,-2.4747,-2.4763,-2.4783,-2.4793,-2.4818,-2.4831,-2.485,-2.4834,-2.48,-2.4895,-2.4844,-2.489,-2.489,-2.491,-2.4908,-2.5055,-2.4924,-2.4923,-2.4923,-2.4923,0,-2.4708,-2.4758,-2.4737,-2.4769,-2.4823,-2.4802,-2.4855,-2.4855,-2.4863,-2.4893,-2.4863,-2.4893,-2.4871,-2.4899,-2.4887,-2.4936,-2.4943,-2.4938,-2.4934,-2.494,-2.494,-2.4947,-2.4939,-2.4927,-2.4926,-2.4925,-2.4925,0,-2.4825,-2.4814,-2.4868,-2.487,-2.4872,-2.4911,-2.4912,-2.4942,-2.4936,-2.4975,-2.4983,-2.4973,-2.5004,-2.499,-2.5023,-2.5015,-2.5077,-2.5066,-2.5073,-2.5069,-2.5115,-2.511,-2.5269,-2.5288,-2.5147,-2.5148,-2.515,0,-2.4898,-2.4935,-2.4941,-2.4959,-2.4965,-2.4996,-2.5012,-2.4992,-2.501,-2.5025,-2.5053,-2.5081,-2.5102,-2.5153,-2.5148,-2.5172,-2.516,-2.5214,-2.5163,-2.5167,-2.5157,-2.5154,-2.5157,-2.5223,-2.5225,-2.5226,-2.5228,0,-2.5029,-2.5021,-2.5046,-2.5068,-2.5089,-2.5106,-2.512,-2.5137,-2.5117,-2.514,-2.517,-2.5187,-2.522,-2.5247,-2.5268,-2.5272,-2.5246,-2.5244,-2.5255,-2.526,-2.5261,-2.5258,-2.5098,-2.524,-2.5239,-2.5238,-2.5237,-2.5237,-2.5124,-2.5154,-2.5162,-2.519,-2.5199,-2.5213,-2.524,-2.5237,-2.5262,-2.5287,-2.5274,-2.5309,-2.5318,-2.5344,-2.5351,-2.5378,-2.5356,-2.5373,-2.5377,-2.5381,-2.5386,-2.526,-2.5382,-2.5381,-2.5381,-2.5381,-2.5381,0,-2.525,-2.5254,-2.528,-2.53,-2.5322,-2.5297,-2.5311,-2.533,-2.5362,-2.5372,-2.5394,-2.5428,-2.5454,-2.5452,-2.5476,-2.5498,-2.5486,-2.5504,-2.5501,-2.5502,-2.5405,-2.5391,-2.5513,-2.5513,-2.5513,-2.5513,-2.5513,-2.5513,-2.5318,-2.5367,-2.536,-2.5412,-2.5415,-2.5449,-2.5459,-2.5471,-2.5479,-2.5519,-2.554,-2.5539,-2.5543,-2.5567,-2.559,-2.5588,-2.5597,-2.5619,-2.5613,-2.5522,-2.5509,-2.5496,-2.5483,-2.5622,-2.5622,-2.5707,-2.5708,-2.5709]},{"header":{"parameterUnit":"m.s-1","parameterCategory":1,"la1":30.2991,"la2":30.254,"lo1":-89.0895,"lo2":-89.0444,"dy":0.0017,"dx":0.0017,"nx":28,"ny":28,"refTime":"2026-01-29T03:00:00:Z","depth":0,"parameterNumber":3,"parameterNumberName":"V-component_of_WINDS"},"data":[0,0,0,0,0,0,0,0,0,0,0,0,0,0,0,0,0,0,0,0,0,0,0,0,0,0,0,0,0,0,0,0,0,0,0,0,0,0,0,0,0,0,0,0,0,0,0,0,0,0,0,0,0,0,0,0,0,0,-1.7534,-1.7534,0,-1.7563,-1.7564,-1.7564,-1.7562,-1.7562,-1.7562,-1.7561,-1.759,-1.7591,-1.7593,0,0,0,0,0,0,0,0,0,0,0,0,0,-1.7473,-1.7474,-1.7533,-1.7534,-1.7534,-1.7563,-1.7564,-1.7564,-1.7563,-1.7562,-1.7562,-1.7561,-1.759,-1.7591,-1.7593,0,0,0,0,0,0,0,0,0,0,0,0,0,-1.7501,-1.7475,-1.7533,-1.7537,-1.7538,-1.7563,-1.7564,-1.7564,-1.7563,-1.7562,-1.7561,-1.7561,-1.7589,-1.7591,-1.7593,-1.7616,0,0,-1.7598,-1.7599,0,0,0,0,0,0,0,0,-1.7499,-1.7503,-1.7536,-1.7537,-1.7538,-1.7559,-1.7553,-1.7582,-1.7563,-1.7553,-1.7561,-1.756,-1.758,-1.7583,-1.7589,-1.7618,-1.7619,-1.7598,-1.7599,-1.76,-1.7601,0,0,0,0,0,0,0,-1.7497,-1.7502,-1.7545,-1.7537,-1.7537,-1.7536,-1.754,-1.7558,-1.757,-1.7554,-1.7554,-1.7558,-1.758,-1.7588,-1.759,-1.7619,-1.7598,-1.76,-1.7601,-1.7602,-1.7666,-1.7667,0,0,0,0,0,0,-1.7495,-1.75,-1.7544,-1.7546,-1.7516,-1.7538,-1.7542,-1.7552,-1.757,-1.7572,-1.7558,-1.7557,-1.7585,-1.7588,-1.7591,-1.7619,-1.76,-1.7602,-1.7603,-1.7666,-1.7666,-1.7667,0,0,0,0,0,0,-1.7494,-1.7499,-1.7543,-1.7523,-1.7529,-1.754,-1.7552,-1.7553,-1.7561,-1.7573,-1.7574,-1.7564,-1.7585,-1.7589,-1.761,-1.762,-1.7603,-1.7604,-1.7665,-1.7666,-1.7667,-1.7674,0,0,0,0,0,0,-1.7492,-1.7498,-1.7508,-1.7523,-1.753,-1.7562,-1.7553,-1.7554,-1.7564,-1.7563,-1.7578,-1.758,-1.7585,-1.7607,-1.7611,-1.7622,-1.7605,-1.7664,-1.7665,-1.7666,-1.7673,-1.7675,-1.7677,0,0,0,0,0,-1.749,-1.7509,-1.7508,-1.7514,-1.7542,-1.7562,-1.7566,-1.7571,-1.7565,-1.7574,-1.7581,-1.758,-1.7618,-1.7609,-1.7614,-1.7625,-1.7663,-1.7665,-1.7666,-1.7672,-1.7675,-1.7677,0,0,0,0,0,0,-1.7494,-1.7511,-1.7511,-1.7536,-1.7548,-1.7562,-1.7574,-1.7574,-1.7588,-1.7586,-1.7591,-1.7595,-1.7616,-1.7623,-1.7613,-1.7648,-1.764,-1.7642,-1.7642,-1.7645,-1.7647,-1.7645,-1.7607,0,0,0,0,0,-1.7498,-1.7514,-1.7527,-1.7548,-1.7554,-1.7563,-1.7572,-1.7575,-1.7587,-1.7592,-1.7601,-1.7613,-1.7627,-1.7637,-1.7651,-1.7674,-1.7677,-1.7684,-1.7686,-1.7688,-1.7689,-1.7701,-1.7704,-1.7672,-1.7672,-1.7672,0,0,-1.7506,-1.7517,-1.7527,-1.7549,-1.7559,-1.7574,-1.7567,-1.7584,-1.7595,-1.7595,-1.7615,-1.7622,-1.7635,-1.7657,-1.7667,-1.7663,-1.7699,-1.769,-1.7691,-1.7692,-1.7703,-1.7706,-1.7708,-1.7673,-1.7673,-1.7673,0,0,-1.7529,-1.7539,-1.7557,-1.7566,-1.7581,-1.7587,-1.7591,-1.7606,-1.761,-1.7631,-1.763,-1.7643,-1.7668,-1.7677,-1.7685,-1.771,-1.7708,-1.7714,-1.7725,-1.7736,-1.7738,-1.7741,-1.7748,-1.7751,-1.7716,-1.7716,-1.7716,0,-1.7537,-1.756,-1.7566,-1.7582,-1.7592,-1.7592,-1.7609,-1.7618,-1.7637,-1.7642,-1.7638,-1.7669,-1.7678,-1.7701,-1.7707,-1.7714,-1.7718,-1.7712,-1.7738,-1.774,-1.7742,-1.7749,-1.7752,-1.7717,-1.7717,-1.7717,-1.7717,0,-1.7569,-1.7585,-1.7597,-1.7615,-1.7626,-1.7643,-1.765,-1.766,-1.7661,-1.7667,-1.7687,-1.7698,-1.7714,-1.772,-1.7721,-1.7743,-1.774,-1.7737,-1.7729,-1.7746,-1.7752,-1.7755,-1.7718,-1.7717,-1.7717,-1.7717,0,0,-1.7595,-1.7615,-1.7619,-1.7627,-1.7643,-1.7655,-1.7671,-1.7687,-1.7694,-1.7707,-1.772,-1.7741,-1.7738,-1.7747,-1.7749,-1.7759,-1.7776,-1.7755,-1.7755,-1.7757,-1.7799,-1.7801,-1.7804,-1.7776,-1.7776,-1.7777,-1.7798,0,-1.7618,-1.7647,-1.7652,-1.7678,-1.7692,-1.7692,-1.7706,-1.7717,-1.7723,-1.7735,-1.7741,-1.7755,-1.7751,-1.7756,-1.7766,-1.7772,-1.7785,-1.7771,-1.7787,-1.7787,-1.7783,-1.7808,-1.781,-1.7829,-1.7801,-1.7801,-1.7801,0,-1.7649,-1.7662,-1.7689,-1.7702,-1.7708,-1.7721,-1.7734,-1.7747,-1.7758,-1.7762,-1.7771,-1.7773,-1.7788,-1.778,-1.7801,-1.7792,-1.7798,-1.7803,-1.7803,-1.7804,-1.7795,-1.7808,-1.7836,-1.7838,-1.7806,-1.7806,-1.7805,0,-1.7664,-1.7688,-1.7707,-1.7714,-1.7729,-1.7738,-1.7745,-1.7756,-1.7764,-1.7777,-1.7782,-1.7796,-1.7803,-1.7813,-1.7818,-1.7811,-1.7838,-1.783,-1.784,-1.784,-1.7845,-1.7845,-1.7873,-1.7851,-1.7851,-1.7851,-1.7851,0,-1.7689,-1.7705,-1.7714,-1.7725,-1.7743,-1.7748,-1.7765,-1.7772,-1.7781,-1.7793,-1.7794,-1.7806,-1.7811,-1.7823,-1.7827,-1.7843,-1.7847,-1.7849,-1.7849,-1.7848,-1.7848,-1.7852,-1.7851,-1.7852,-1.7852,-1.7852,-1.7852,0,-1.7708,-1.7715,-1.7735,-1.7748,-1.7752,-1.7764,-1.7775,-1.7785,-1.7791,-1.7806,-1.781,-1.7818,-1.7832,-1.7838,-1.7855,-1.7857,-1.7875,-1.7875,-1.7871,-1.7871,-1.788,-1.7879,-1.7911,-1.7915,-1.7892,-1.7892,-1.7893,0,-1.7723,-1.7735,-1.7749,-1.7757,-1.7765,-1.7778,-1.7787,-1.7792,-1.7801,-1.7814,-1.7823,-1.7837,-1.7848,-1.787,-1.7877,-1.789,-1.7889,-1.79,-1.7891,-1.7889,-1.7888,-1.7887,-1.7888,-1.7901,-1.7901,-1.7902,-1.7902,0,-1.7748,-1.7751,-1.7763,-1.7777,-1.7787,-1.7798,-1.7809,-1.7815,-1.7822,-1.7832,-1.7846,-1.7855,-1.7872,-1.7885,-1.7898,-1.7904,-1.7904,-1.7905,-1.7907,-1.7906,-1.7902,-1.7903,-1.7874,-1.7904,-1.7903,-1.7903,-1.7903,-1.7903,-1.7765,-1.7775,-1.7787,-1.78,-1.7809,-1.7819,-1.7829,-1.7835,-1.7847,-1.7862,-1.7864,-1.7879,-1.7889,-1.7906,-1.7913,-1.7924,-1.7921,-1.7926,-1.7926,-1.7927,-1.7927,-1.7901,-1.7927,-1.7926,-1.7926,-1.7926,-1.7926,0,-1.7789,-1.7796,-1.7809,-1.7824,-1.7834,-1.7833,-1.7845,-1.7853,-1.7866,-1.7876,-1.7887,-1.7903,-1.7915,-1.7923,-1.7936,-1.7943,-1.7943,-1.7946,-1.7945,-1.7946,-1.793,-1.7925,-1.7946,-1.7946,-1.7946,-1.7946,-1.7946,-1.7946,-1.7803,-1.782,-1.7824,-1.7845,-1.7852,-1.7866,-1.7873,-1.7881,-1.7889,-1.7907,-1.7917,-1.7922,-1.7931,-1.7944,-1.7955,-1.7957,-1.7961,-1.7964,-1.7966,-1.795,-1.7948,-1.7946,-1.7942,-1.7965,-1.7965,-1.7981,-1.7982,-1.7982]}]]